Weather History for George, South Africa

Change the Weather History Date:

Wednesday, September 5, 2012

  Actual Average Record
Temperature  
Mean Temperature 51 °F -  
Max Temperature 63 °F 64 °F 82 °F (1996)
Min Temperature 39 °F 48 °F 39 °F (2012)
Degree Days  
Heating Degree Days 14    
Growing Degree Days 1 (Base 50)    
Moisture  
Dew Point 43 °F    
Average Humidity 68    
Maximum Humidity 88    
Minimum Humidity 34    
Precipitation  
Precipitation 0.08 in - - ()
Sea Level Pressure  
Sea Level Pressure 30.21 in    
Wind  
Wind Speed 5 mph ()    
Max Wind Speed 9 mph    
Max Gust Speed -    
Visibility 8.6 miles    
Events      
Averages and records for this station are not official NWS values.
T = Trace of Precipitation, MM = Missing Value Source: Averaged Metar Reports

Daily Weather History Graph

Daily Weather History Graph

Search for Another Location

Airport:

Trip Planner

Search our weather history database for the weather conditions in past years. The results will help you decide how hot, cold, wet, or windy it might be!

Date:

Astronomy

Sep. 05, 2012 Rise Set
Actual Time 6:43 AM SAST 6:15 PM SAST
Civil Twilight 6:18 AM SAST 6:40 PM SAST
Nautical Twilight 5:49 AM SAST 7:09 PM SAST
Astronomical Twilight 5:20 AM SAST 7:38 PM SAST
Moon 11:05 PM SAST (9/5) 9:06 AM SAST (9/5)
Length of Visible Light 12h 22m
Length of Day
11h 32m
Waning Gibbous, 78% of the Moon is Illuminated
Sep 5
Waning Gibbous
Sep 8
Last Quarter
Sep 16
New
Sep 22
First Quarter
Sep 30
Full

Hourly Weather History & Observations

Time (SAST) Temp. Windchill Dew Point Humidity Pressure Visibility Wind Dir Wind Speed Gust Speed Precip Events Conditions
12:00 AM 48.2 °F - 41.0 °F 76% 30.15 in - East 6.9 mph - N/A   Clear
1:00 AM 46.4 °F 44.3 °F 41.0 °F 81% 30.18 in - NE 4.6 mph - N/A   Clear
2:00 AM 45 °F - 40 °F 76% 30.18 in 19 mi NE 4.6 mph - -  
2:00 AM 44.6 °F 41.4 °F 39.2 °F 81% 30.15 in - NE 5.8 mph - N/A   Clear
3:00 AM 44.6 °F 42.2 °F 39.2 °F 81% 30.12 in - NE 4.6 mph - N/A   Clear
4:00 AM 44.6 °F - 37.4 °F 76% 30.12 in - Variable 2.3 mph - N/A   Clear
5:00 AM 41 °F - 37 °F 82% 30.14 in 12 mi NW 8.1 mph - -  
5:00 AM 41.0 °F 35.8 °F 37.4 °F 87% 30.12 in - NW 8.1 mph - N/A   Clear
7:00 AM 42.8 °F 40.1 °F 37.4 °F 81% 30.15 in - WNW 4.6 mph - N/A   Clear
8:00 AM 47 °F - 40 °F 71% 30.19 in 12 mi NNW 2.3 mph - -   Scattered Clouds
8:00 AM 46.4 °F - 41.0 °F 81% 30.18 in - NNW 2.3 mph - N/A   Clear
9:00 AM 53.6 °F - 42.8 °F 67% 30.18 in - Variable 2.3 mph - N/A   Clear
10:00 AM 57.2 °F - 42.8 °F 59% 30.18 in - WNW 4.6 mph - N/A   Clear
11:00 AM 61 °F - 40 °F 34% 30.22 in 12 mi 3.5 mph - -   Scattered Clouds
11:00 AM 60.8 °F - 39.2 °F 45% 30.21 in 6.2 mi Variable 3.5 mph - N/A   Partly Cloudy
12:00 PM 60.8 °F - 44.6 °F 55% 30.21 in 6.2 mi SSW 8.1 mph - N/A   Partly Cloudy
1:00 PM 62.6 °F - 41.0 °F 45% 30.21 in 6.2 mi South 6.9 mph - N/A   Partly Cloudy
2:00 PM 62 °F - 43 °F 39% 30.21 in 12 mi SSE 6.9 mph - -   Scattered Clouds
2:00 PM 62.6 °F - 42.8 °F 48% 30.18 in 6.2 mi SSE 6.9 mph - N/A   Partly Cloudy
3:00 PM 60.8 °F - 42.8 °F 52% 30.21 in 6.2 mi SE 9.2 mph - N/A   Partly Cloudy
4:00 PM 60.8 °F - 44.6 °F 55% 30.21 in 6.2 mi South 6.9 mph - N/A   Partly Cloudy
5:00 PM 60 °F - 46 °F 49% 30.26 in 12 mi SE 6.9 mph - -   Scattered Clouds
5:00 PM 60.8 °F - 46.4 °F 59% 30.24 in 6.2 mi SE 8.1 mph - N/A   Partly Cloudy
6:00 PM 57.2 °F - 48.2 °F 72% 30.27 in 6.2 mi East 4.6 mph - N/A   Partly Cloudy
7:00 PM 57.2 °F - 48.2 °F 72% 30.30 in 6.2 mi SSW 3.5 mph - N/A   Mostly Cloudy
8:00 PM 54 °F - 47 °F 71% 30.33 in 12 mi NW 5.8 mph - -   Mostly Cloudy
8:00 PM 53.6 °F - 46.4 °F 77% 30.30 in 6.2 mi NW 5.8 mph - N/A   Mostly Cloudy
9:00 PM 53.6 °F - 48.2 °F 82% 30.33 in 6.2 mi NW 4.6 mph - N/A   Mostly Cloudy
10:00 PM 51.8 °F - 48.2 °F 88% 30.36 in 6.2 mi NW 6.9 mph - N/A   Mostly Cloudy
11:00 PM 51.8 °F - 48.2 °F 88% 30.36 in 6.2 mi WNW 5.8 mph - N/A   Mostly Cloudy